Starlink 4386

operational
NORAD ID: 53649 Int'l Des: 2022-105 Owner: SPXS Country: US Constellation: starlink
LEOCIRCULARRETROGRADESSO

Über Starlink 4386

Beschreibung wird geladen...

Live-Position

3D-Globus wird geladen...

Nächste Überflüge

Höhenverlauf

Altitude vs Time

uPlot chart will show altitude changes over time

Zweizeiliger Elementsatz

1 53649U 22105B 25352.23306423 -.00000535 00000-0 -32844-4 0 9997
2 53649 97.6019 230.9842 0002141 82.2926 277.8544 15.05647616181048
Epoch: 18. Dez. 2025 • Age: 15 hours

Aktueller Status

Höhe 561.5 km
Geschwindigkeit 7.59 km/s
Subsatellitenpunkt 79.98°N, 66.94°E
Startdatum 31. Aug. 2022
Alter 3.2 years
Typ internet

Technische Details

Klassifizierung Payload
Masse 300.00 kg
Trockenmasse 290.00 kg
Gesamtmasse 300.00 kg
Länge 0.20 m
Durchmesser 2.80 m
Spannweite 9.00 m
Form Box + pan
Hersteller SPXS
Bus-Typ Starlink
Phasenstatus In Orbit
Besitzer/Staat SPXS/US

Große Konstellationen

Loading constellations...